Location: Unspecified
(54.1780°N, 0.0000°E)
Time: 10:28:39
(UTC+00:00)

Transit 2A - Pass Details

Date: 25 June 2019
Orbit: 596 x 962 km, 66.7° (Epoch: 16 August)

Event Time Altitude Azimuth Distance (km) Brightness Sun altitude
Rises 22:10:46 0° 165° (SSE) 3,630 - -8.8°
Reaches altitude 10° 22:14:03 10° 149° (SSE) 2,694 - -9.0°
Exits shadow 22:14:17 11° 147° (SSE) 2,638 8.1 -9.0°
Maximum altitude 22:18:19 19° 106° (ESE) 2,095 7.9 -9.2°
Drops below altitude 10° 22:22:32 10° 64° (ENE) 2,657 8.8 -9.5°
Sets 22:25:44 0° 47° (NE) 3,563 9.7 -9.7°
